Regional Weather Roundup
Issued by NWS

Home | Current Version | Previous Version | Graphics & Text | Print | Product List | Glossary On
Versions: 1 2 3 4 5 6 7 8 9 10 11 12 13 14 15 16 17 18 19 20 21 22 23 24 25 26 27 28 29 30 31 32 33 34 35 36 37 38 39 40 41 42 43 44 45 46 47 48 49 50
000
ASUS43 KDMX 171206
RWRIA

WEATHER ROUNDUP FOR IOWA
NATIONAL WEATHER SERVICE DES MOINES IA
600 AM CST TUE JAN 17 2017

NOTE: "FAIR" INDICATES FEW OR NO CLOUDS BELOW 12,000 FEET WITH NO
SIGNIFICANT WEATHER AND/OR OBSTRUCTIONS TO VISIBILITY.

* - THESE STATIONS ARE NOT NWS STATIONS...THUS NOT UNDER NWS
QUALITY CONTROL.  THEY ALSO DO NOT REPORT WEATHER SUCH
AS PRECIPITATION OR FOG.

IAZ001>003-012>014-020>022-031>034-043>046-171300-
   NORTHWEST IOWA

CITY           SKY/WX    TMP DP  RH WIND       PRES   REMARKS
CARROLL *      CLOUDY    34  34 100 NW12      29.95S FOG     WCI  25
CHEROKEE *     CLOUDY    30  30 100 NW5       29.99R FOG     WCI  25
DENISON *      CLOUDY    28  28 100 NW8G15    29.97R FOG     WCI  20
LE MARS *      CLOUDY    21  19  93 W5        30.04R WCI  15
ORANGE CITY *  CLOUDY    23  23 100 NW9       29.99S FOG     WCI  13
SHELDON *      CLOUDY    28  28 100 NW12      29.97S FOG     WCI  18
SIOUX CITY     CLOUDY    21  17  84 NW14      30.03S WCI   8
6HR MIN TEMP:  21; 6HR MAX TEMP:  28;

SPENCER        CLOUDY    29  28  96 NW13      29.97R FOG     WCI  19
6HR MIN TEMP:  29; 6HR MAX TEMP:  32; 6HR PCP: TRACE;

STORM LAKE *   CLOUDY    32  30  93 NW14      29.96R FOG     WCI  22
$$

IAZ055>058-069>071-079>083-090>094-171300-
   SOUTHWEST IOWA

CITY           SKY/WX    TMP DP  RH WIND       PRES   REMARKS
ATLANTIC *     CLOUDY    32  32 100 NW10      29.98R FOG     WCI  24
AUDUBON *      CLOUDY    34  30  86 NW3       29.97R FOG
CLARINDA *     CLOUDY    34  34 100 NW6       30.02R FOG     WCI  29
COUNCIL BLFS * CLOUDY    28  28 100 NW9G16    30.00R WCI  20
CRESTON *      MIX PCPN  32  32 100 NW8       29.98R WCI  25
HARLAN  *      CLOUDY    30  30 100 NW15      30.01S FOG     WCI  19
LAMONI         CLOUDY    33  33 100 W8        29.96R FOG     WCI  26
6HR MIN TEMP:  33; 6HR MAX TEMP:  34;

RED OAK *      CLOUDY    32  32 100 NW10      30.01R FOG     WCI  24
SHENANDOAH *   CLOUDY    32  30  93 NW8       30.02S FOG     WCI  25
$$

IAZ047>049-059>061-072>074-084-171300-
   CENTRAL IOWA

CITY           SKY/WX    TMP DP  RH WIND       PRES   REMARKS
AMES           CLOUDY    33  33 100 NW14      29.92F FOG     WCI  23
6HR MIN TEMP:  33; 6HR MAX TEMP:  33;

ANKENY *       CLOUDY    34  32  93 NW8       29.95R FOG     WCI  27
BOONE *        CLOUDY    32  32 100 NW10      29.92R FOG     WCI  24
CHARITON *     CLOUDY    32  32 100 W8G14     29.95R FOG     WCI  25
DES MOINES     DRIZZLE   34  33  96 NW9       29.95R FOG     WCI  27
6HR MIN TEMP:  34; 6HR MAX TEMP:  34; 6HR PCP: TRACE;

GRINNELL*      CLOUDY    32  32  99 NW10      29.90R FOG     WCI  24
KNOXVILLE *    CLOUDY    34  32  93 W9        29.93R FOG     WCI  26
MARSHALLTOWN   CLOUDY    33  33 100 NW9       29.90R FOG     WCI  25
6HR MIN TEMP:  32; 6HR MAX TEMP:  33;

NEWTON *       CLOUDY    32  32 100 NW10      29.91R FOG     WCI  24
PELLA *        CLOUDY    33  33  99 NW9       29.94R FOG     WCI  25
PERRY *        CLOUDY    33  33 100 NW9       29.94S FOG     WCI  25
$$

IAZ004>006-015-016-023>025-035-036-171300-
   NORTH CENTRAL IOWA

CITY           SKY/WX    TMP DP  RH WIND       PRES   REMARKS
ALGONA *       FOG       32  32 100 N12       29.93R VSB 3/4 WCI  23
CLARION *      CLOUDY    32  32 100 NW12      29.93R FOG     WCI  23
ESTHERVILLE    CLOUDY    27  27 100 NW13      29.95R FOG     WCI  16
6HR MIN TEMP:  27; 6HR MAX TEMP:  31; 6HR PCP: TRACE;

FORT DODGE *   CLOUDY    32  28  86 CALM      29.95R
MASON CITY     CLOUDY    31  30  96 N13       29.91S FOG     WCI  21
6HR MIN TEMP:  31; 6HR MAX TEMP:  32;

FOREST CITY *  CLOUDY    32  32 100 N10       29.91S FOG     WCI  24
WEBSTER CITY * CLOUDY    32  32 100 NW12      29.92R FOG     WCI  23
IOWA FALLS *   CLOUDY    33  32  97 NW8       29.91S FOG     WCI  26
$$

IAZ007>011-017>019-026>030-037>042-050>054-066-171300-
   NORTHEAST IOWA

CITY           SKY/WX    TMP DP  RH WIND       PRES   REMARKS
CEDAR RAPIDS   CLOUDY    32  32 100 NW10      29.86R FOG     WCI  24
6HR MIN TEMP:  32; 6HR MAX TEMP:  34;

CHARLES CITY * CLOUDY    34  34 100 MISG      29.89R FOG
CLINTON *      FOG       34  33  96 NW7       29.84S VSB 1/2 WCI  28
DECORAH *      FOG       32  32 100 NW3       29.85R VSB 1/4
DUBUQUE        FOG       32  32 100 NW6       29.82F VSB 1/4 WCI  26
6HR MIN TEMP:  32; 6HR MAX TEMP:  33; 6HR PCP: TRACE;

MONTICELLO *   CLOUDY    34  34 100 NW7       29.84S FOG     WCI  28
OELWEIN *      CLOUDY    32  32 100 NW10      29.87S FOG     WCI  24
WATERLOO       CLOUDY    33  31  92 NW10      29.88S FOG     WCI  25
6HR MIN TEMP:  32; 6HR MAX TEMP:  33;

$$

IAZ064-065-067-068-078-171300-
   EAST CENTRAL IOWA

CITY           SKY/WX    TMP DP  RH WIND       PRES   REMARKS
DAVENPORT      FOG       33  33 100 W7        29.85S VSB 3/4 WCI  27
6HR MIN TEMP:  33; 6HR MAX TEMP:  35;

IOWA CITY      CLOUDY    35  33  92 W6        29.89R WCI  30
6HR MIN TEMP:  35; 6HR MAX TEMP:  36;

MUSCATINE *    CLOUDY    36  34  93 W7        29.89R WCI  30
QUAD CITIES    FOG       35  34  96 SW9       29.86R VSB 1/2 WCI  28
6HR MIN TEMP:  35; 6HR MAX TEMP:  36;

$$

IAZ062-063-075>077-085>089-095>099-171300-
   SOUTHEAST IOWA

CITY           SKY/WX    TMP DP  RH WIND       PRES   REMARKS
BURLINGTON     CLOUDY    35  35 100 W13       29.91R WCI  26
6HR MIN TEMP:  36; 6HR MAX TEMP:  40; 6HR PCP: TRACE;

FAIRFIELD *    CLOUDY    34  34 100 W9        29.92R WCI  26
FORT MADISON * CLOUDY    37  36  93 W10       29.93R FOG     WCI  30
KEOKUK *       CLOUDY    37  37 100 NW14      29.91F WCI  29
OSKALOOSA *    CLOUDY    32  32  99 W12       29.93R FOG     WCI  23
OTTUMWA        CLOUDY    34  34 100 W12       29.92R FOG     WCI  25
6HR MIN TEMP:  34; 6HR MAX TEMP:  35;

WASHINGTON *   CLOUDY    34  34 100 W9        29.91R WCI  26
$$

ABBREVIATIONS USED IN REMARKS
   TC - TEMPERATURES IN CELSIUS
  WCI - WIND CHILL INDEX
   HX - HEAT INDEX
  VSB - VISIBILITY
$$





USA.gov is the U.S. government's official web portal to all federal, state and local government web resources and services.